TimeEST,TemperatureF,Dew PointF,Humidity,Sea Level PressureIn,VisibilityMPH,Wind Direction,Wind SpeedMPH,Gust SpeedMPH,PrecipitationIn,Events,Conditions,WindDirDegrees,DateUTC
12:53 AM,77.0,68.0,74,30.17,10.0,East,12.7,-,N/A,,Mostly Cloudy,100,2013-12-08 05:53:00
1:53 AM,75.9,69.1,79,30.16,10.0,SE,16.1,-,N/A,,Mostly Cloudy,130,2013-12-08 06:53:00
2:53 AM,75.9,68.0,76,30.15,10.0,SE,9.2,-,N/A,,Overcast,130,2013-12-08 07:53:00
3:53 AM,77.0,66.9,71,30.14,10.0,ESE,9.2,-,N/A,,Overcast,120,2013-12-08 08:53:00
4:53 AM,78.1,66.0,66,30.15,10.0,ESE,11.5,-,N/A,,Mostly Cloudy,110,2013-12-08 09:53:00
5:53 AM,77.0,66.0,69,30.16,10.0,ESE,9.2,-,N/A,,Mostly Cloudy,110,2013-12-08 10:53:00
6:53 AM,75.9,64.9,69,30.18,10.0,ESE,9.2,-,N/A,,Scattered Clouds,120,2013-12-08 11:53:00
7:53 AM,77.0,66.0,69,30.20,10.0,ESE,9.2,-,N/A,,Scattered Clouds,110,2013-12-08 12:53:00
8:53 AM,80.1,66.9,64,30.21,10.0,ESE,12.7,-,N/A,,Scattered Clouds,110,2013-12-08 13:53:00
9:53 AM,82.0,68.0,62,30.21,10.0,ESE,12.7,-,N/A,,Scattered Clouds,110,2013-12-08 14:53:00
10:26 AM,78.8,69.8,74,30.21,7.0,East,12.7,-,0.00,Rain,Light Rain,90,2013-12-08 15:26:00
10:53 AM,78.1,72.0,81,30.21,7.0,East,8.1,-,0.03,,Mostly Cloudy,90,2013-12-08 15:53:00
11:53 AM,81.0,70.0,69,30.18,10.0,ESE,12.7,-,0.00,,Mostly Cloudy,120,2013-12-08 16:53:00
12:53 PM,82.0,69.1,65,30.16,10.0,East,11.5,-,N/A,,Mostly Cloudy,100,2013-12-08 17:53:00
1:53 PM,82.0,69.1,65,30.14,10.0,SE,6.9,16.1,N/A,,Mostly Cloudy,140,2013-12-08 18:53:00
2:09 PM,82.4,68.0,62,30.14,10.0,SE,10.4,17.3,N/A,,Mostly Cloudy,140,2013-12-08 19:09:00
2:53 PM,81.0,66.0,60,30.13,10.0,SE,11.5,-,N/A,,Mostly Cloudy,140,2013-12-08 19:53:00
3:53 PM,80.1,66.0,62,30.13,10.0,SE,15.0,-,N/A,,Mostly Cloudy,130,2013-12-08 20:53:00
4:53 PM,79.0,66.0,64,30.13,10.0,SE,12.7,-,N/A,,Scattered Clouds,130,2013-12-08 21:53:00
5:53 PM,78.1,66.9,68,30.13,10.0,SE,10.4,-,N/A,,Scattered Clouds,130,2013-12-08 22:53:00
6:53 PM,77.0,64.9,66,30.15,10.0,SE,8.1,-,N/A,,Scattered Clouds,130,2013-12-08 23:53:00
7:53 PM,78.1,64.9,64,30.16,10.0,SE,9.2,-,N/A,,Mostly Cloudy,130,2013-12-09 00:53:00
8:53 PM,78.1,66.9,68,30.17,10.0,SE,9.2,-,N/A,,Mostly Cloudy,140,2013-12-09 01:53:00
9:53 PM,77.0,68.0,74,30.17,10.0,SE,9.2,-,N/A,,Scattered Clouds,130,2013-12-09 02:53:00
10:53 PM,78.1,68.0,71,30.17,10.0,SE,10.4,-,N/A,,Mostly Cloudy,130,2013-12-09 03:53:00
11:53 PM,78.1,68.0,71,30.16,10.0,SE,11.5,-,N/A,,Mostly Cloudy,130,2013-12-09 04:53:00